Location: Unspecified
(0.0000°N, 0.0000°E)
Time: 17:35:59
(UTC+00:00)

Vanguard 1 - Pass Details

Date: 11 December 2017
Orbit: 650 x 3833 km, 34.3° (Epoch: 19 June)

Event Time Altitude Azimuth Distance (km) Brightness Sun altitude
Rises 02:52:47 0° 213° (SSW) 5,770 14.0 -40.7°
Reaches altitude 10° 02:57:09 10° 201° (SSW) 5,225 13.8 -39.8°
Maximum altitude 03:10:47 28° 147° (SSE) 4,966 14.0 -36.8°
Drops below altitude 10° 03:28:39 10° 96° (E) 6,935 15.1 -32.9°
Sets 03:35:38 0° 86° (E) 7,924 15.5 -31.3°
